Glasgow, United Kingdom

11:55 PM GMT on November 21, 2017 (GMT +0000)
Glasgow

Weather History for EGPF - January, 2013

Change the Weather History Date:

Monday, January 21, 2013

  Actual Average Record
Temperature  
Mean Temperature 34 °F -  
Max Temperature 35 °F 44 °F 55 °F (2002)
Min Temperature 33 °F 32 °F 23 °F (2011)
Degree Days  
Heating Degree Days 31    
Moisture  
Dew Point 30 °F    
Average Humidity 83    
Maximum Humidity 93    
Minimum Humidity 75    
Precipitation  
Precipitation 0.00 in - - ()
Sea Level Pressure  
Sea Level Pressure 29.48 in    
Wind  
Wind Speed 13 mph ()    
Max Wind Speed 23 mph    
Max Gust Speed 34 mph    
Visibility 5.9 miles    
Events Rain , Snow    
Averages and records for this station are not official NWS values.
T = Trace of Precipitation, MM = Missing Value Source: Averaged Metar Reports

Daily Weather History Graph

Daily Weather History Graph

Search for Another Location

Airport or City:

Trip Planner

Search our weather history database for the weather conditions in past years. The results will help you decide how hot, cold, wet, or windy it might be!

Date:

Astronomy

Jan. 21, 2013 Rise Set
Actual Time 8:30 AM GMT 4:28 PM GMT
Civil Twilight 7:47 AM GMT 5:11 PM GMT
Nautical Twilight 7:00 AM GMT 5:57 PM GMT
Astronomical Twilight 6:16 AM GMT 6:41 PM GMT
Moon 11:56 AM GMT 3:46 AM GMT
Length of Visible Light 9h 24m
Length of Day
7h 58m
Waxing Gibbous, 73% of the Moon is Illuminated
Jan 21
Waxing Gibbous
Jan 27
Full
Feb 3
Last Quarter
Feb 10
New
Feb 17
First Quarter

Hourly Weather History & Observations

Time (GMT) Temp. Windchill Dew Point Humidity Pressure Visibility Wind Dir Wind Speed Gust Speed Precip Events Conditions
12:20 AM 33.8 °F 27.0 °F 26.6 °F 75% 29.53 in 6.2 mi East 8.1 mph - N/A Snow Light Snow
12:50 AM 33.8 °F 25.8 °F 26.6 °F 75% 29.53 in 6.2 mi ENE 10.4 mph - N/A Snow Light Snow
1:20 AM 33.8 °F 25.3 °F 26.6 °F 75% 29.53 in 6.2 mi East 11.5 mph - N/A Snow Light Snow
1:50 AM 33.8 °F 25.8 °F 28.4 °F 81% 29.50 in 6.2 mi East 10.4 mph - N/A Snow Light Snow
2:20 AM 33.8 °F 27.0 °F 28.4 °F 81% 29.50 in 6.2 mi East 8.1 mph - N/A   Overcast
2:50 AM 33.8 °F 24.8 °F 28.4 °F 81% 29.50 in 6.2 mi ENE 12.7 mph - N/A   Overcast
3:20 AM 33.8 °F 25.8 °F 28.4 °F 81% 29.50 in 6.2 mi ENE 10.4 mph - N/A Snow Snow Grains
3:50 AM 33.8 °F 24.3 °F 30.2 °F 87% 29.50 in - East 13.8 mph - N/A Rain Rain
4:20 AM 33.8 °F 25.3 °F 30.2 °F 87% 29.50 in 6.2 mi ENE 11.5 mph - N/A Snow Light Snow Showers
4:50 AM 33.8 °F 25.8 °F 28.4 °F 81% 29.50 in 6.2 mi ENE 10.4 mph - N/A Rain Light Rain
5:20 AM 33.8 °F 25.3 °F 28.4 °F 81% 29.50 in 6.2 mi ENE 11.5 mph - N/A   Overcast
5:50 AM 35.6 °F 27.1 °F 28.4 °F 75% 29.50 in 6.2 mi ENE 12.7 mph - N/A   Overcast
6:20 AM 35.6 °F 26.2 °F 28.4 °F 75% 29.50 in 6.2 mi East 15.0 mph - N/A Snow Light Snow
6:50 AM 33.8 °F 24.8 °F 30.2 °F 87% 29.50 in 4.3 mi ENE 12.7 mph - N/A Snow Light Snow
7:20 AM 33.8 °F 26.4 °F 32.0 °F 93% 29.50 in 2.8 mi ENE 9.2 mph - N/A Snow Light Snow
7:50 AM 33.8 °F 24.8 °F 32.0 °F 93% 29.50 in 3.7 mi ENE 12.7 mph - N/A Snow Light Snow
8:20 AM 35.6 °F 26.6 °F 32.0 °F 87% 29.50 in 6.2 mi ENE 13.8 mph - N/A   Scattered Clouds
8:50 AM 35.6 °F 26.6 °F 32.0 °F 87% 29.50 in 6.2 mi ENE 13.8 mph - N/A   Scattered Clouds
9:20 AM 35.6 °F 26.2 °F 32.0 °F 87% 29.50 in 5.6 mi ENE 15.0 mph - N/A   Mostly Cloudy
9:50 AM 35.6 °F 25.5 °F 32.0 °F 87% 29.50 in 5.6 mi ENE 17.3 mph - N/A Rain Light Rain
10:20 AM 35.6 °F 25.9 °F 32.0 °F 87% 29.50 in 6.2 mi ENE 16.1 mph - N/A   Mostly Cloudy
10:50 AM 35.6 °F 24.8 °F 32.0 °F 87% 29.50 in 6.2 mi ENE 19.6 mph - N/A Rain Light Rain
11:20 AM 35.6 °F 25.9 °F 30.2 °F 81% 29.50 in 6.2 mi East 16.1 mph - N/A Rain Light Rain
11:50 AM 35.6 °F 25.5 °F 30.2 °F 81% 29.50 in 6.2 mi ENE 17.3 mph - N/A   Mostly Cloudy
12:20 PM 35.6 °F 24.8 °F 30.2 °F 81% 29.47 in 6.2 mi ENE 19.6 mph - N/A Rain Light Rain
12:50 PM 35.6 °F 24.5 °F 32.0 °F 87% 29.47 in 6.2 mi ENE 20.7 mph - N/A   Mostly Cloudy
1:20 PM 35.6 °F 24.8 °F 32.0 °F 87% 29.47 in 6.2 mi East 19.6 mph - N/A   Mostly Cloudy
1:50 PM 35.6 °F 24.2 °F 32.0 °F 87% 29.47 in 6.2 mi East 21.9 mph 34.5 mph N/A   Mostly Cloudy
2:20 PM 35.6 °F 24.2 °F 32.0 °F 87% 29.47 in 6.2 mi East 21.9 mph - N/A Rain Light Rain
2:50 PM 35.6 °F 24.5 °F 32.0 °F 87% 29.47 in 5.0 mi ENE 20.7 mph - N/A Rain Light Rain
3:20 PM 35.6 °F 24.8 °F 32.0 °F 87% 29.44 in 5.6 mi ENE 19.6 mph - N/A Rain Light Rain
3:50 PM 35.6 °F 25.5 °F 32.0 °F 87% 29.44 in 6.2 mi ENE 17.3 mph 29.9 mph N/A Rain Light Rain
4:20 PM 35.6 °F 26.2 °F 32.0 °F 87% 29.47 in 5.0 mi ENE 15.0 mph - N/A   Mostly Cloudy
4:50 PM 35.6 °F 26.2 °F 32.0 °F 87% 29.47 in 6.2 mi ENE 15.0 mph - N/A   Mostly Cloudy
5:20 PM 35.6 °F 26.2 °F 30.2 °F 81% 29.44 in 6.2 mi ENE 15.0 mph - N/A   Mostly Cloudy
5:50 PM 35.6 °F 25.9 °F 30.2 °F 81% 29.44 in 6.2 mi ENE 16.1 mph - N/A   Mostly Cloudy
6:20 PM 35.6 °F 25.5 °F 30.2 °F 81% 29.44 in 6.2 mi ENE 17.3 mph - N/A   Mostly Cloudy
6:50 PM 35.6 °F 25.5 °F 30.2 °F 81% 29.47 in 6.2 mi ENE 17.3 mph - N/A   Mostly Cloudy
7:20 PM 35.6 °F 26.2 °F 30.2 °F 81% 29.47 in 6.2 mi ENE 15.0 mph - N/A   Mostly Cloudy
7:50 PM 35.6 °F 25.2 °F 30.2 °F 81% 29.47 in 6.2 mi ENE 18.4 mph - N/A Rain Light Rain
8:20 PM 35.6 °F 25.2 °F 30.2 °F 81% 29.47 in 6.2 mi ENE 18.4 mph - N/A Rain Light Rain
8:50 PM 35.6 °F 24.8 °F 30.2 °F 81% 29.47 in 6.2 mi ENE 19.6 mph - N/A   Mostly Cloudy
9:20 PM 35.6 °F 24.8 °F 30.2 °F 81% 29.47 in 6.2 mi ENE 19.6 mph - N/A   Mostly Cloudy
9:50 PM 35.6 °F 24.8 °F 30.2 °F 81% 29.47 in 6.2 mi East 19.6 mph 31.1 mph N/A   Mostly Cloudy
10:20 PM 35.6 °F 24.0 °F 30.2 °F 81% 29.47 in 6.2 mi ENE 23.0 mph - N/A Rain , Snow Light Rain
10:50 PM 35.6 °F 24.5 °F 30.2 °F 81% 29.47 in 6.2 mi ENE 20.7 mph - N/A Snow Light Snow
11:20 PM 35.6 °F 24.5 °F 30.2 °F 81% 29.47 in 6.2 mi ENE 20.7 mph - N/A Snow Light Snow
11:50 PM 35.6 °F 25.2 °F 30.2 °F 81% 29.47 in 6.2 mi ENE 18.4 mph - N/A Snow Light Snow